Location: Haliburton Scout Reserve
(45.0900°N, 78.3200°W)
Time: 09:57:41
(UTC-05:00)

Transit 2A - All Passes

Search period start: 29 January 2023 00:00
Search period end: 08 February 2023 00:00
Orbit: 594 x 962 km, 66.7° (Epoch: 29 January)

Date Brightness Start Highest point End Pass type
(mag) Time Alt. Az. Time Alt. Az. Time Alt. Az.
29 Jan - 01:08:27 10° N 01:12:19 17° NNE 01:16:19 10° ENE night (unlit)
29 Jan - 02:50:43 10° NNW 02:56:41 62° NE 03:02:58 10° SE night (unlit)
29 Jan - 04:34:32 10° NW 04:39:36 28° WSW 04:44:49 10° SSW night (unlit)
29 Jan - 17:33:38 10° SSE 17:37:37 28° ESE 17:41:58 10° NE daylight
29 Jan - 19:15:54 10° WSW 19:20:31 44° NW 19:25:40 10° NNE visible
29 Jan - 21:03:06 10° NW 21:05:18 12° NNW 21:07:33 10° N visible
30 Jan - 00:34:17 10° N 00:37:23 14° NNE 00:40:35 10° ENE night (unlit)
30 Jan - 02:16:17 10° NNW 02:22:05 46° NE 02:28:09 10° ESE night (unlit)
30 Jan - 03:59:40 10° NW 04:05:16 38° WSW 04:11:03 10° S night (unlit)
30 Jan - 17:00:06 10° SSE 17:03:23 19° ESE 17:06:52 10° ENE daylight
30 Jan - 18:41:09 10° SW 18:45:54 62° NW 18:51:14 10° NNE visible
30 Jan - 20:27:20 10° WNW 20:30:20 15° NNW 20:33:30 10° N visible
31 Jan - 00:00:16 10° N 00:02:24 12° NNE 00:04:35 10° NE night (unlit)
31 Jan - 01:41:54 10° NNW 01:47:24 36° NE 01:53:09 10° ESE night (unlit)
31 Jan - 03:24:56 10° NW 03:30:52 53° WSW 03:37:01 10° S night (unlit)
31 Jan - 16:27:19 10° SE 16:29:11 12° ESE 16:31:08 10° ENE daylight
31 Jan - 18:06:35 10° SSW 18:11:21 88° WNW 18:16:44 10° NNE visible
31 Jan - 19:51:50 10° W 19:55:27 19° NW 19:59:18 10° N visible
31 Jan - 23:27:14 10° NNE 23:27:22 10° NNE 23:27:30 10° NNE night (unlit)
01 Feb - 01:07:34 10° NNW 01:12:40 28° NE 01:18:00 10° E night (unlit)
01 Feb - 02:50:20 10° NW 02:56:25 73° WSW 03:02:45 10° SSE night (unlit)
01 Feb - 04:36:05 10° WNW 04:38:44 13° WSW 04:41:24 10° SW night (unlit)
01 Feb - 17:32:11 10° SSW 17:36:53 64° ESE 17:42:10 10° NE daylight
01 Feb - 19:16:32 10° W 19:20:36 24° NW 19:25:02 10° NNE visible
02 Feb - 00:33:16 10° NNW 00:37:52 22° NE 00:42:39 10° E night (unlit)
02 Feb - 02:15:47 10° NNW 02:21:55 85° NE 02:28:18 10° SSE night (unlit)
02 Feb - 04:00:21 10° WNW 04:04:30 19° WSW 04:08:45 10° SSW night (unlit)
02 Feb - 16:58:00 10° S 17:02:30 43° ESE 17:07:29 10° NE daylight
02 Feb - 18:41:25 10° WSW 18:45:50 32° NW 18:50:42 10° NNE visible
02 Feb - 20:30:05 10° NNW 20:30:57 10° NNW 20:31:52 10° N visible
02 Feb - 23:59:00 10° N 00:02:59 18° NNE 00:07:08 10° ENE night (unlit)
03 Feb - 01:41:18 10° NNW 01:47:21 64° NE 01:53:40 10° SE night (unlit)
03 Feb - 03:25:11 10° NW 03:30:13 27° WSW 03:35:22 10° SSW night (unlit)
03 Feb - 16:24:05 10° S 16:28:11 29° ESE 16:32:40 10° NE daylight
03 Feb - 18:06:28 10° WSW 18:11:07 43° NW 18:16:19 10° NNE visible
03 Feb - 19:53:44 10° NW 19:55:56 12° NNW 19:58:14 10° N visible
03 Feb - 23:24:48 10° N 23:28:03 15° NNE 23:31:26 10° ENE night (unlit)
04 Feb - 01:06:53 10° NNW 01:12:44 48° NE 01:18:51 10° SE night (unlit)
04 Feb - 02:50:18 10° NW 02:55:54 37° WSW 03:01:37 10° S night (unlit)
04 Feb - 15:50:28 10° SSE 15:53:55 20° ESE 15:57:36 10° ENE daylight
04 Feb - 17:31:41 10° SW 17:36:29 60° NW 17:41:52 10° NNE daylight
04 Feb - 19:17:57 10° WNW 19:20:58 15° NNW 19:24:09 10° N visible
04 Feb - 22:50:43 10° N 22:53:04 12° NNE 22:55:29 10° NE visible
05 Feb - 00:32:29 10° NNW 00:38:03 37° NE 00:43:52 10° ESE night (unlit)
05 Feb - 02:15:34 10° NW 02:21:30 51° WSW 02:27:36 10° S night (unlit)
05 Feb - 15:17:30 10° SE 15:19:43 13° ESE 15:22:01 10° ENE daylight
05 Feb - 16:57:04 10° SSW 17:01:55 85° WNW 17:07:22 10° NNE daylight
05 Feb - 18:42:26 10° W 18:46:03 19° NW 18:49:56 10° N visible
05 Feb - 22:17:02 10° N 22:18:01 10° NNE 22:19:02 10° NNE visible
05 Feb - 23:58:07 10° NNW 00:03:19 29° NE 00:08:43 10° E night (unlit)
06 Feb - 01:40:55 10° NW 01:47:03 70° WSW 01:53:21 10° SSE night (unlit)
06 Feb - 03:26:53 10° WNW 03:29:18 12° W 03:31:44 10° SW night (unlit)
06 Feb - 16:22:39 10° SSW 16:27:26 67° ESE 16:32:47 10° NE daylight
06 Feb - 18:07:06 10° W 18:11:12 24° NW 18:15:39 10° NNE visible
06 Feb - 23:23:47 10° NNW 23:28:30 23° NE 23:33:23 10° E night (unlit)
07 Feb - 01:06:21 10° NNW 01:12:32 87° ENE 01:18:55 10° SSE night (unlit)
07 Feb - 02:51:01 10° WNW 02:55:05 18° WSW 02:59:12 10° SW night (unlit)
07 Feb - 15:48:26 10° S 15:53:01 45° ESE 15:58:07 10° NE daylight
07 Feb - 17:31:57 10° WSW 17:36:24 31° NW 17:41:18 10° NNE daylight
07 Feb - 19:20:37 10° NNW 19:21:35 10° NNW 19:22:33 10° N visible
07 Feb - 22:49:30 10° N 22:53:37 19° NE 22:57:54 10° ENE visible
